Location: Peebles
(55.6412°N, 3.1714°W)
Time: 12:59:18
(UTC+00:00)

CUTE-I - Pass Details

Date: 13 December 2023
Orbit: 807 x 823 km, 98.7° (Epoch: 24 February)

Event Time Altitude Azimuth Distance (km) Brightness Sun altitude
Rises 05:35:03 0° 22° (NNE) 3,369 ? -23.3°
Reaches altitude 10° 05:37:49 10° 35° (NE) 2,433 ? -22.9°
Maximum altitude 05:42:14 25° 91° (E) 1,601 ? -22.3°
Drops below altitude 10° 05:46:38 10° 146° (SE) 2,422 ? -21.7°
Sets 05:49:23 0° 159° (SSE) 3,349 ? -21.3°
